Flag for British Virgin Islands Weather past 2 weeks in Road Town, Tortola, British Virgin Islands

79 °F


Feels Like: 83 °F
Forecast: 78 / 82 °F
Wind: 7 mph from Southeast

Location: Cyril E. King International Airport

Current Time: Nov 28, 2015 at 4:17:30 AM

Latest Report: Nov 28, 2015 at 2:53 AM

Visibility: 10 mi

Pressure: 29.88 "Hg

Humidity: 84%

Dew point: 74 °F

Location of Road TownLocation

Historic Weather in Road Town — Graph


Road Town temperature yesterday

Maximum temperature yesterday: 85 °F (at 12:53 PM)
Minimum temperature yesterday: 77 °F (at 2:53 AM)
Average temperature yesterday: 81 °F

Past Weeks' High & Low Weather Summary

High87 °F (Nov 13, 10:53 AM)97% (Nov 16, 8:01 PM)30.07 "Hg (Nov 16, 8:01 PM)
Low73 °F (Nov 22, 12:53 AM)48% (Nov 20, 10:53 AM)29.85 "Hg (Nov 20, 2:53 PM)
Average81 °F78%29.94 "Hg
* Reported Nov 13 1:53 AM — Nov 28 1:53 AM, Road Town, Weather by CustomWeather, © 2015

Note: Actual official high and low records may vary slightly from our data, if they occured in-between our weather recording intervals... More about our weather records


Road Town weather history for previous 24 hours

Time TempWeatherWind HumidityBarometerVisibility
1:53 AM
Sat, Nov 28
81 °FClear.6 mph79%29.89 "Hg10 mi
12:53 AM79 °FPassing clouds.7 mph88%29.90 "Hg10 mi
11:53 PM
Fri, Nov 27
81 °FPassing clouds.6 mph82%29.92 "Hg10 mi
10:53 PM79 °FPassing clouds.5 mph88%29.93 "Hg10 mi
9:53 PM80 °FPassing clouds.7 mph85%29.93 "Hg10 mi
8:53 PM82 °FPassing clouds.7 mph79%29.93 "Hg10 mi
7:54 PM82 °FPassing clouds.8 mph82%29.91 "Hg10 mi
6:53 PM82 °FPassing clouds.7 mph79%29.89 "Hg10 mi
5:53 PM82 °FPassing clouds.9 mph82%29.88 "Hg10 mi
4:53 PM83 °FScattered clouds.10 mph77%29.86 "Hg10 mi
3:53 PM84 °FPassing clouds.8 mph77%29.87 "Hg10 mi
2:53 PM84 °FPassing clouds.8 mph77%29.88 "Hg10 mi
1:53 PM85 °FPassing clouds.10 mph77%29.90 "Hg10 mi
12:53 PM85 °FScattered clouds.9 mph75%29.93 "Hg10 mi
11:53 AM84 °FSunny.12 mph74%29.94 "Hg10 mi
10:53 AM84 °FSunny.9 mph77%29.96 "Hg10 mi
9:53 AM83 °FPassing clouds.10 mph77%29.96 "Hg10 mi
8:53 AM82 °FPassing clouds.13 mph79%29.95 "Hg10 mi
8:32 AM82 °FScattered clouds.10 mph77%29.94 "Hg10 mi
7:53 AM81 °FScattered clouds.12 mph82%29.93 "Hg10 mi
6:53 AM79 °FScattered clouds.10 mph88%29.90 "Hg10 mi
5:53 AM80 °FPassing clouds.9 mph81%29.90 "Hg10 mi
4:53 AM78 °FPassing clouds.6 mph90%29.90 "Hg10 mi
Weather by CustomWeather, © 2015

See weather overviewHow to use our weather pages